SCP
0 1 1 1 1 2 2 2 2 1 1 1 1 1 1 1 1 1 1 1 1 0 0 0 0 0 0 0 0 0 0 0 0 0 0 0 0 0 0 0 0 0 0
0 1 1 1 1 2 2 2 2 2 1 1 1 1 1 1 1 1 1 1 1 0 0 0 0 0 0 0 0 0 0 0 0 0 0 0 0 0 0 0 0 0 0
0 1 1 1 2 2 2 2 2 2 2 1 1 1 1 1 1 1 1 1 1 0 0 0 0 0 0 0 0 0 0 0 0 0 0 0 0 0 0 0 0 0 0
0 1 1 1 2 2 2 2 2 2 2 2 1 1 1 1 1 1 1 1 1 0 0 0 0 0 0 0 0 0 0 0 0 0 0 0 0 0 0 0 0 0 0
0 1 1 1 1 2 2 2 2 2 2 2 2 1 1 1 1 1 1 1 1 0 0 0 0 0 0 0 0 0 0 0 0 0 0 0 0 0 0 0 0 0 0
1 1 1 1 1 2 2 2 2 2 2 2 2 2 1 1 1 1 1 1 1 0 0 0 0 0 0 0 0 0 0 0 0 0 0 0 0 0 0 0 0 0 0
1 1 1 1 1 1 2 2 2 2 2 2 2 2 1 1 1 1 1 1 1 0 0 0 0 0 0 0 0 0 0 0 0 0 0 0 0 0 0 0 0 0 0
1 1 1 1 1 1 2 2 2 2 2 2 2 2 1 1 1 1 1 1 1 0 0 0 0 0 0 0 0 0 0 0 0 0 0 0 0 0 0 0 0 0 0
1 1 1 1 1 1 2 2 2 2 2 2 2 1 1 1 1 1 1 1 0 0 0 0 0 0 0 0 0 0 0 0 0 0 0 0 0 0 0 0 0 0 0
1 1 1 1 1 1 1 1 2 2 2 2 1 1 1 1 1 1 1 1 0 0 0 0 0 0 0 0 0 0 0 0 0 0 0 0 0 0 0 0 0 0 0
1 1 1 1 1 1 1 1 1 1 1 1 1 1 1 1 1 1 0 0 0 0 0 0 0 0 0 0 0 0 0 0 0 0 0 0 0 0 0 0 0 0 0
1 1 1 1 1 1 1 1 1 1 1 1 1 1 1 1 1 0 0 0 0 0 0 0 0 0 0 0 0 0 0 0 0 0 0 0 0 0 0 0 0 0 0
0 1 1 1 1 1 1 1 1 1 1 1 1 1 1 1 0 0 0 0 0 0 0 0 0 0 0 0 0 0 0 0 0 0 0 0 0 0 0 0 0 0 0
0 0 1 1 1 1 1 1 1 1 1 1 1 1 1 0 0 0 0 0 0 0 0 0 0 0 0 0 0 0 0 0 0 0 0 0 0 0 0 0 0 0 0
0 0 1 1 1 1 1 1 1 1 1 1 1 1 1 0 0 0 0 0 0 0 0 0 0 0 0 0 0 0 0 0 0 0 0 0 0 0 0 0 0 0 0
0 0 0 1 1 1 1 1 1 1 1 1 1 1 1 0 0 0 0 0 0 0 0 0 0 0 0 0 0 0 0 0 0 0 0 0 0 0 0 0 0 0 0
0 0 0 1 1 1 1 1 1 1 1 1 1 1 0 0 0 0 0 0 0 0 0 0 0 0 0 0 0 0 0 0 0 0 0 0 0 0 0 0 0 0 0
0 0 0 0 1 1 1 1 1 1 1 1 1 1 0 0 0 0 0 0 0 0 0 0 0 0 0 0 0 0 0 0 0 0 0 0 0 0 0 0 0 0 0
0 0 0 0 0 0 0 0 0 1 1 1 1 1 0 0 0 0 0 0 0 0 0 0 0 0 0 0 0 0 0 0 0 0 0 0 0 0 0 0 0 0 0
0 0 0 0 0 0 0 0 0 0 0 0 0 0 0 0 0 0 0 0 0 0 0 0 0 0 0 0 0 0 0 0 0 0 0 0 0 0 0 0 0 0 0
0 0 0 0 0 0 0 0 0 0 0 0 0 0 0 0 0 0 0 0 0 0 0 0 0 0 0 0 0 0 0 0 0 0 0 0 0 0 0 0 0 0 0
0 0 0 0 0 0 0 0 0 0 0 0 0 0 0 0 0 0 0 0 0 0 0 0 0 0 0 0 0 0 0 0 0 0 0 0 0 0 0 0 0 0 0
0 0 0 0 0 0 0 0 0 0 0 0 0 0 0 0 0 0 0 0 0 0 0 0 0 0 0 0 0 0 0 0 0 0 0 0 0 0 0 0 0 0 0
0 0 0 0 0 0 0 0 0 0 0 0 0 0 0 0 0 0 0 0 0 0 0 0 0 0 0 0 0 0 0 0 0 0 0 0 0 0 0 0 0 0 0
0 0 0 0 0 0 0 0 0 0 0 0 0 0 0 0 0 0 0 0 0 0 0 0 0 0 0 0 0 0 0 0 0 0 0 0 0 0 0 0 0 0 0
0 0 0 0 0 0 0 0 0 0 0 0 0 0 0 0 0 0 0 0 0 0 0 0 0 0 0 0 0 0 0 0 0 0 0 0 0 0 0 0 0 0 0
Wind_Speed
7 13 19 18 18 19 19 20 19 19 18 18 18 18 18 17 17 17 17 17 17 17 17 17 16 16 17 17 17 16 16 16 16 15 15 14 14 14 13 13 14 10 16
9 14 19 17 18 18 19 19 19 18 18 18 18 18 18 18 18 17 17 17 17 17 17 17 17 17 17 16 16 16 15 15 14 14 14 13 13 14 15 16 15 10 16
9 13 17 17 17 17 17 18 18 18 18 18 18 18 18 18 18 17 17 17 17 17 17 17 17 17 17 16 16 15 14 13 12 12 12 7 9 14 15 16 16 16 16
8 11 14 16 16 17 17 18 18 19 19 18 18 18 18 18 18 17 17 17 17 17 17 17 17 17 17 16 15 14 12 10 9 8 6 7 7 14 15 15 15 15 15
7 9 13 17 16 17 17 18 18 19 19 19 19 19 19 18 18 17 17 17 17 17 17 17 17 17 16 15 14 13 11 9 8 9 7 7 6 13 15 15 14 14 15
6 7 12 17 17 17 17 17 18 19 19 19 19 19 19 19 18 17 17 17 17 17 17 17 17 16 16 15 13 11 9 7 6 6 7 6 5 13 14 14 14 15 15
4 6 10 17 18 17 17 17 18 19 19 19 19 19 19 19 18 17 17 17 17 18 18 17 17 16 15 14 13 10 8 6 6 7 7 6 7 13 13 14 14 15 15
2 6 9 16 17 17 17 18 18 19 19 20 19 19 19 19 19 19 18 18 17 18 18 17 17 16 15 14 12 9 5 5 9 9 7 6 10 13 14 14 14 14 14
1 4 7 10 13 15 16 17 17 18 19 19 19 19 19 19 19 20 19 18 18 17 17 17 17 16 15 13 11 8 5 6 5 5 8 5 11 13 14 13 13 13 13
1 3 6 8 9 10 12 15 16 17 18 18 18 17 17 18 18 19 17 17 18 17 17 17 17 16 15 13 11 7 3 3 6 6 5 6 12 13 13 13 12 12 12
3 3 6 8 9 9 10 12 14 15 16 17 15 17 16 11 12 12 14 16 18 18 17 17 17 16 14 11 9 5 1 2 6 5 5 9 11 12 12 12 12 11 11
5 5 5 7 8 9 9 8 8 9 10 11 11 13 10 9 9 11 14 15 17 17 17 17 16 15 10 5 5 3 1 4 6 5 5 10 11 12 12 11 11 10 10
6 6 6 6 7 8 6 6 5 5 7 9 12 12 9 8 8 8 7 8 10 12 9 11 11 6 5 4 3 2 2 3 4 5 5 9 10 11 11 11 10 9 9
7 8 7 7 7 7 7 6 6 6 6 7 10 12 9 7 8 8 6 7 7 6 7 6 5 6 6 6 5 4 3 3 4 4 4 9 9 10 10 9 9 8 8
9 9 9 7 7 7 7 7 7 7 7 8 9 11 11 9 9 9 8 7 7 7 7 6 5 6 6 6 5 5 4 5 6 6 4 8 8 9 9 8 7 7 7
9 9 8 9 8 8 7 7 7 7 8 8 8 11 13 10 10 9 9 8 7 7 7 6 6 6 5 5 5 4 4 5 6 7 5 5 7 8 8 7 7 6 6
9 9 9 9 8 8 8 8 7 7 7 8 9 11 13 12 11 10 9 9 8 8 8 6 6 5 5 4 4 4 4 4 6 6 6 4 4 5 6 6 6 5 5
9 9 9 9 8 8 8 7 6 7 7 8 8 10 13 13 13 10 9 8 9 8 7 6 6 5 5 4 4 3 3 3 5 5 5 5 4 3 4 5 5 5 4
9 9 9 9 9 8 7 6 7 8 7 7 8 8 11 14 14 11 9 9 10 7 6 7 6 5 6 5 4 3 3 3 3 4 4 5 5 4 4 5 5 4 4
9 9 9 9 9 8 7 5 6 7 7 7 8 9 12 11 13 12 10 11 10 8 7 7 7 6 5 5 5 4 3 3 3 3 3 4 4 5 5 4 3 3 4
7 8 8 9 9 7 6 6 6 7 7 7 8 11 12 12 13 12 10 12 10 9 9 8 6 8 6 5 5 3 2 1 2 2 3 3 3 4 4 4 3 3 2
7 8 8 8 8 8 7 6 6 7 6 7 8 10 12 12 13 12 13 11 11 9 10 9 8 6 5 6 6 5 2 0 2 2 2 3 3 3 4 4 4 3 3
6 7 6 6 7 7 8 6 5 5 5 5 8 8 10 12 13 12 14 13 12 11 10 10 9 8 7 6 6 5 5 4 2 2 3 3 3 3 3 3 4 4 4
6 5 6 5 7 7 7 7 9 8 7 8 7 7 9 11 13 13 14 14 13 10 11 11 9 8 9 8 5 3 3 4 5 2 2 3 4 4 4 3 4 3 3
5 4 4 5 5 7 7 8 9 8 7 7 8 9 9 10 11 13 13 13 13 10 11 11 10 9 7 7 6 3 2 2 3 4 3 3 2 3 3 4 4 3 3
5 3 3 4 5 6 8 8 9 10 10 11 12 11 10 9 9 12 13 12 12 11 12 11 11 11 8 7 5 4 4 3 3 3 3 3 3 2 3 3 3 3 3
Wind_Direction
128 146 160 163 164 163 160 158 156 153 151 150 148 144 140 137 133 130 128 125 123 122 120 117 113 109 105 102 99 96 94 93 92 90 87 86 84 81 78 80 79 70 73
132 146 159 163 165 165 163 160 157 154 153 152 149 147 144 141 138 135 133 130 128 125 122 119 116 113 109 106 103 101 100 100 100 97 91 86 85 83 81 80 82 79 76
128 144 159 163 166 166 165 162 158 156 155 153 151 149 146 144 142 139 136 134 131 127 123 120 117 114 111 107 105 105 106 108 109 106 96 90 86 88 86 84 82 80 78
128 143 159 163 168 168 168 165 161 159 157 156 154 151 149 147 145 143 139 136 131 127 123 121 118 116 112 110 108 108 110 109 104 100 92 89 87 90 88 85 82 80 78
129 146 158 164 169 171 171 169 165 163 161 159 157 154 152 149 147 145 140 136 132 129 125 122 120 118 115 113 112 113 112 104 91 86 87 84 82 92 90 86 84 83 80
129 146 159 166 172 174 174 171 169 167 165 163 160 156 154 152 148 145 141 137 134 131 127 125 123 120 118 116 116 116 112 97 84 88 89 90 87 94 92 89 88 85 81
139 149 162 170 174 176 176 175 173 171 168 165 162 159 157 154 150 145 141 138 136 133 131 128 126 123 121 120 120 118 108 87 93 85 84 85 93 98 94 92 91 86 82
151 153 162 174 177 179 179 178 177 175 171 168 165 162 159 155 151 147 144 141 138 137 135 132 130 127 124 123 123 120 97 81 100 97 90 87 101 100 97 94 91 87 83
162 158 164 178 180 181 182 180 179 176 173 169 167 163 158 155 152 151 148 145 142 141 138 135 133 130 127 126 126 124 93 75 92 103 101 93 104 102 98 96 93 88 84
238 177 180 184 185 183 182 182 180 177 175 170 166 161 156 154 154 151 147 147 145 143 141 138 135 133 130 130 132 130 94 73 100 92 94 106 109 108 104 100 96 92 87
265 215 196 194 188 183 184 183 178 176 175 170 164 156 153 154 152 150 148 148 147 145 144 141 137 134 131 134 140 144 124 109 101 92 92 113 117 113 109 103 100 96 91
247 231 219 201 195 184 186 182 179 178 173 173 166 162 160 155 153 149 147 149 148 146 145 143 140 138 134 139 152 163 157 117 105 102 109 119 120 116 113 109 106 101 95
237 234 229 217 202 189 180 182 181 174 174 172 170 169 160 152 148 144 147 146 145 145 144 143 145 154 148 147 162 164 128 107 106 107 114 119 120 118 115 113 109 105 101
244 234 230 225 210 196 185 180 180 176 174 175 174 169 160 155 152 153 154 154 154 150 147 154 164 156 145 152 156 144 122 109 109 109 117 121 123 122 121 120 116 110 105
244 236 231 226 218 203 188 181 182 181 176 177 176 170 161 156 157 159 157 156 156 152 158 164 163 150 150 155 153 143 135 123 117 112 115 117 123 125 125 126 124 120 112
244 233 232 225 222 208 195 186 178 182 179 176 176 171 165 160 161 162 157 157 156 156 161 164 155 151 148 143 144 139 135 126 122 124 126 118 122 128 131 131 131 130 124
245 233 228 226 221 210 198 189 179 179 183 178 175 172 169 163 162 161 158 157 157 158 159 159 145 145 138 137 140 139 132 128 128 132 136 133 129 127 132 139 140 138 133
246 236 225 228 219 208 199 190 181 177 186 182 174 172 170 166 163 158 155 156 156 156 157 154 148 141 138 140 135 129 118 120 128 134 138 143 146 142 139 143 150 153 149
248 238 225 221 216 207 198 193 186 180 183 181 172 171 170 168 165 158 155 154 155 155 156 155 149 145 145 141 133 125 121 123 135 139 145 151 150 144 143 149 150 156 166
244 239 226 221 213 200 193 190 189 182 180 183 173 170 169 169 165 158 154 155 155 155 154 153 150 146 145 142 134 122 125 129 138 149 155 147 149 154 154 157 154 171 185
246 241 223 220 211 194 185 183 187 185 179 181 176 167 166 168 166 159 156 156 158 159 159 156 150 148 145 136 120 109 82 128 158 165 159 154 166 166 159 163 168 164 180
250 242 220 221 216 198 185 183 184 182 180 182 177 169 167 169 165 163 159 160 161 159 161 161 153 146 151 146 141 133 129 212 256 191 169 169 176 165 171 178 173 168 164
254 240 233 224 220 205 188 181 178 177 173 180 177 171 172 173 168 165 164 160 164 163 166 165 162 155 156 160 164 156 153 180 184 216 195 179 181 179 183 181 179 179 172
270 243 228 227 220 204 189 188 187 190 190 184 175 170 172 173 169 165 167 164 166 167 166 167 164 159 157 166 185 200 165 146 145 159 218 203 194 191 187 184 180 182 177
291 254 232 223 228 207 193 195 192 193 193 178 169 170 175 172 171 169 168 167 169 169 168 167 165 164 164 168 172 170 163 121 138 140 174 201 208 208 191 183 175 178 180
310 283 244 232 232 221 201 201 198 191 190 182 173 174 175 171 172 173 170 170 171 169 170 169 167 169 170 170 169 163 160 158 177 158 159 173 190 213 195 184 176 174 171